Location: Fort Wayne
(41.1310°N, 85.1290°W)
Time: 18:20:35
(UTC-04:00)

Daily predictions for brighter satellites

Satellite Brightness Start Highest point End
(mag) Time Altitude Azimuth Time Altitude Azimuth Time Altitude Azimuth
Meteor 2-10 Rocket 4.0 21:27:50 10° N 21:33:34 56° ENE 21:39:09 10° SSE
SPOT 5 4.2 21:29:58 10° SE 21:34:25 29° ENE 21:38:56 10° N
ALOS 2.9 21:30:05 10° S 21:34:41 59° W 21:39:19 10° NNW
ERBS 3.1 21:31:23 10° NNW 21:34:43 41° NE 21:38:01 10° ESE
Cosmos 1606 4.5 21:35:36 10° NNE 21:38:18 17° ENE 21:40:59 10° ESE
Cosmos 1892 2.7 21:41:48 10° S 21:45:34 65° E 21:49:23 10° NNE
H-2A R/B 4.0 21:44:46 10° S 21:48:15 39° W 21:51:47 10° NNW
ERS-1 Rocket 3.0 21:44:05 10° SSE 21:49:07 78° ENE 21:54:09 10° N
Cosmos 909 Rocket 4.3 21:44:12 10° SSW 21:50:36 74° ESE 21:58:18 10° NE
OPS 6432 4.5 21:47:30 10° SSW 21:50:55 48° ESE 21:53:57 10° NE
Cosmos 1190 Rocket 4.4 21:46:50 10° N 21:51:52 47° ENE 21:56:41 11° SE
PSLV R/B 3.4 21:52:18 10° W 21:55:44 66° SSW 21:58:46 13° ESE
Abrixas rocket 3.6 21:58:15 10° WNW 22:01:19 31° SW 22:04:01 12° SSE
Coronas F rocket 1.6 21:59:03 10° SSW 22:01:40 67° W 22:04:19 10° N
CZ-4 DEB 4.1 21:59:37 10° S 22:02:37 39° W 22:05:39 10° NNW
Cosmos 2154 Rocket 4.3 22:00:53 10° SSE 22:06:46 46° E 22:12:39 10° NNE
USA 234 4.1 22:01:54 10° ENE 22:07:04 25° SE 22:12:12 10° S
BREEZE-M DEB (TANK) 3.4 22:06:59 10° W 22:09:24 53° NNW 22:14:37 10° ENE
deb Chang Zheng 4 3.5 22:05:16 10° NNE 22:09:42 77° ESE 22:14:07 10° S
CZ-4B R/B 4.4 22:06:42 10° NE 22:10:55 27° E 22:13:59 15° SE
SL-8 R/B 3.7 22:06:43 10° WSW 22:11:34 89° NNW 22:16:23 10° ENE
SL-08 ROCKET BODY 4.4 22:05:49 10° S 22:11:53 89° W 22:17:53 10° N
MetOp-B 4.5 22:07:40 13° SE 22:12:14 51° ENE 22:17:25 10° N
Cosmos 2184 Rocket 4.1 22:07:36 10° S 22:13:45 78° W 22:19:59 10° N
Cosmos 1908 Rocket 3.9 22:10:45 10° SSE 22:14:56 47° E 22:19:12 10° NNE
COSMOS 2406 3.3 22:09:16 10° NNW 22:15:02 81° WSW 22:20:21 12° SSE
Cosmos 1733 Rocket 3.5 22:15:39 10° SSW 22:20:01 65° W 22:24:25 10° N
USA 245 4.1 22:19:18 21° ESE 22:20:37 28° ENE 22:23:47 10° N
Cosmos 1378 Rocket 3.9 22:17:30 10° N 22:21:40 45° ENE 22:24:19 20° SE
Cosmos 676 Rocket 4.3 22:16:44 10° N 22:21:50 52° ENE 22:25:21 19° SE
EO 1 Delta rocket 4.3 22:16:50 10° N 22:23:24 81° E 22:28:36 10° S
ARGOS 3.8 22:19:51 17° SE 22:23:25 39° ENE 22:28:21 10° N
ATLAS 5 CENTAUR R/B 2.6 22:17:33 10° NW 22:23:35 71° WSW 22:28:52 16° SSE
Cosmos 2056 Rocket 3.8 22:19:02 10° SSW 22:24:11 70° WNW 22:29:19 10° NNE
Cosmos 1184 Rocket 3.9 22:24:38 24° ESE 22:25:27 27° E 22:28:21 10° NNE
CZ-3C R/B 4.1 22:08:19 10° SW 22:25:43 20° SSW 22:30:49 13° SSE
Cosmos 1174 4.0 22:25:20 10° NNW 22:28:27 37° NE 22:29:37 26° ESE
Cosmos 1954 Rocket 4.5 22:23:46 10° N 22:28:47 46° ENE 22:31:54 22° SE
MINOTAUR IV R/B 4.5 22:24:27 10° SSW 22:28:53 72° ESE 22:33:21 10° NNE
Cosmos 1862 3.4 22:28:46 16° S 22:31:57 61° E 22:35:59 10° NNE
Cosmos 2278 Rocket 2.5 22:27:54 10° S 22:33:14 44° ESE 22:38:35 10° NE
Cosmos 1844 3.7 22:30:28 10° SSW 22:36:11 72° ESE 22:41:58 10° NNE
CENTAUR R/B 3.7 22:29:24 10° NW 22:37:02 52° WSW 22:44:20 13° S
Cosmos 1825 2.1 22:37:57 22° S 22:40:16 65° E 22:44:05 10° NNE
SL-27 R/B 3.3 22:36:53 10° NNW 22:40:26 47° WSW 22:42:44 19° S
Cosmos 2084 3.5 22:37:52 17° S 22:40:29 40° ESE 22:44:06 10° NE
COSMOS 2487 3.1 22:40:20 10° N 22:43:47 41° ENE 22:44:48 33° ESE
Cosmos 1844 Rocket 2.9 22:38:31 10° SSW 22:44:10 74° WNW 22:49:50 10° NNE
COS B Rocket 3.5 22:40:11 10° N 22:44:24 72° W 22:47:18 17° SSW
H-2A R/B 3.2 22:41:15 10° S 22:45:20 40° W 22:49:22 10° NNW
CZ-4 SHROUD 3.7 22:50:15 29° SSW 22:51:33 53° W 22:54:36 10° NNW
CZ-4C R/B 4.2 22:51:49 29° E 22:52:42 33° ENE 22:56:19 10° N
Cosmos 2082 Rocket 3.5 22:47:49 10° N 22:52:42 28° NE 22:55:25 20° E
YAOGAN 6 2.7 22:52:00 29° S 22:53:35 65° W 22:57:06 10° NNW
Cosmos 1408 2.6 22:52:39 23° SSW 22:54:48 80° W 22:58:28 10° N
Meteor 1-27 Rocket 4.0 22:51:14 10° NNW 22:56:46 65° W 23:00:52 18° S
Envisat 4.5 22:57:34 10° SSW 23:02:06 32° W 23:06:38 10° NNW
Cosmos 2218 Rocket 4.3 22:59:14 28° SSE 23:02:23 50° E 23:08:32 10° NNE
Nadezhda 3 Rocket 4.3 22:56:56 10° NNW 23:03:13 66° W 23:08:16 17° S
Cosmos 2297 4.1 23:02:58 32° SE 23:04:43 40° ESE 23:10:02 10° NE
Okean 2 Rocket 3.0 23:02:50 29° S 23:05:01 83° E 23:09:28 10° N
Landsat 7 4.0 23:05:01 37° SE 23:06:38 57° ENE 23:11:18 10° N
H-2A R/B 2.5 23:05:40 33° SE 23:07:47 51° ENE 23:12:57 10° N
Cosmos 1238 Rocket 3.1 23:06:34 10° NNW 23:09:36 47° W 23:10:41 33° SW
Cosmos 1242 Rocket 2.4 23:06:32 10° N 23:10:11 76° E 23:10:42 62° SE
DELTA 2 DEB (DPAF) 4.3 23:09:30 42° SE 23:10:45 60° ENE 23:15:10 10° N
ERBS 4.4 23:08:53 10° W 23:11:17 18° WSW 23:11:51 17° SW
Atlas Centaur 2 3.5 23:09:04 10° SW 23:09:16 11° SW 23:09:16 11° SW
Cosmos 1420 Rocket 3.9 23:08:59 26° S 23:11:58 70° ESE 23:17:11 10° NNE
SPOT 5 4.3 23:08:05 13° SSW 23:12:15 37° W 23:17:13 10° NNW
Cosmos 1606 4.4 23:10:42 10° NNW 23:14:11 31° W 23:16:30 17° SW
BREEZE-M DEB 4.4 23:11:39 10° WSW 23:15:36 69° NNW 23:16:22 44° NE
NOAA 11 4.3 23:14:14 29° S 23:17:04 73° WSW 23:22:35 10° NNW
Cosmos 1727 Rocket 4.3 23:13:42 10° N 23:19:41 50° ENE 23:21:45 36° SE
Terra 2.0 23:21:17 45° ESE 23:22:23 57° ENE 23:27:04 10° N
Spot 4 4.4 23:21:25 38° ESE 23:22:28 43° ENE 23:27:03 10° N
SPOT 1/Viking Rocket 4.1 23:20:10 26° SSW 23:22:55 53° W 23:28:01 10° NNW
ASTEX 1 4.2 23:21:13 10° NNE 23:25:39 32° E 23:25:46 32° E
IGS 5A 3.7 23:25:17 51° E 23:25:40 53° ENE 23:29:44 10° N
Cosmos 1959 Rocket 4.4 23:22:50 33° S 23:25:45 76° E 23:31:51 10° N
Timation 2 Rocket 3.8 23:27:00 10° NNW 23:33:01 89° WSW 23:35:01 45° SSE
Cosmos 614 Rocket 3.8 23:28:13 10° NNW 23:33:20 77° ENE 23:34:27 54° SE
SAR-Lupe-2 4.3 23:36:53 42° NE 23:36:53 42° NE 23:39:49 10° N
Cosmos 1140 Rocket 3.6 23:31:23 10° NNW 23:36:29 65° WSW 23:37:56 44° SSW
DNEPR-1 R/B 3.6 23:35:00 10° NNW 23:40:25 87° WSW 23:41:08 65° SSE
Cosmos 1975 Rocket 4.4 23:39:31 10° NNW 23:43:22 32° W 23:44:54 25° SW
BREEZE-M DEB (TANK) 4.3 23:42:01 10° NW 23:43:52 19° N 23:46:54 10° ENE
Meteor 1-20 Rocket 4.3 23:43:42 51° SE 23:44:33 57° E 23:50:00 10° NNE
CARTOSAT-1 3.4 23:44:46 71° SSW 23:45:09 79° WSW 23:49:29 10° NNW
SL-8 Rocket 4.3 23:41:37 24° SSW 23:45:34 64° W 23:51:47 10° N
Cosmos 1339 Rocket 4.4 23:42:26 10° N 23:48:34 70° E 23:50:09 50° SE
Meteor 1-25 Rocket 4.2 23:47:59 51° SSE 23:49:27 75° E 23:55:17 10° NNE
USA 234 3.2 23:43:59 10° NE 23:50:33 87° NW 23:57:05 10° SW
